Location: Praha
(50.0830°N, 14.4670°E)
Time: 05:48:03
(UTC+01:00)

ISS - Pass Details

Date: 05 December 2019
Orbit: 411 x 421 km, 51.6° (Epoch: 15 December)

Event Time Altitude Azimuth Distance (km) Brightness Sun altitude
Rises 19:12:59 0° 286° (WNW) 2,363 1.1 -29.7°
Reaches altitude 10° 19:15:14 10° 275° (W) 1,499 -0.1 -30.1°
Enters shadow 19:15:59 15° 268° (W) 1,239 -0.6 -30.2°
